{"data":{"norad_id":66046,"intl_designator":"2025-233P","name":"QIANFAN-104","alt_names":[],"object_type":"PAYLOAD","status":"ACTIVE","operator":null,"country":"PRC","launch_date":"2025-10-17","launch_site_code":"TAISC","launch_vehicle":null,"mission":null,"orbit_class":"UNKNOWN","rcs_meters":null,"size_class":null,"mass_kg":null,"dimensions":null,"purposes":[],"wikipedia_slug":null,"has_3d_model":false,"image_url":null,"decayed_at":null,"tle_current":{"epoch":"2026-09-20T10:20:16.305792Z","epoch_age_seconds":146351,"freshness":"FRESH","line1":"1 66046U 25233P   26263.43074428  .00000082  00000+0  10771-3 0  9996","line2":"2 66046  89.0066  33.4808 0001804 102.7620 257.3733 13.51026657 46095","mean_motion":13.51026657,"eccentricity":0.0001804,"inclination_deg":89.0066,"raan_deg":33.4808,"arg_perigee_deg":102.762,"mean_anomaly_deg":257.3733,"bstar":0.00010771,"rev_number":4609,"period_min":106.58560973161,"perigee_km":1067.140260818,"apogee_km":1069.8270015417,"semimajor_km":7446.6206311798,"source":"CELESTRAK","updated_at":"2026-09-21T09:00:15.734993Z"}}}